Location: Mount Lemmon
(32.4432°N, 110.7577°W)
Time: 13:10:53
(UTC-07:00)

ISS - Visible Passes

Search period start: 22 November 2017 00:00
Search period end: 02 December 2017 00:00
Orbit: 402 x 407 km, 51.6° (Epoch: 23 November)

Date Brightness Start Highest point End Pass type
(mag) Time Alt. Az. Time Alt. Az. Time Alt. Az.
23 Nov -1.9 19:03:35 10° SSW 19:05:02 22° S 19:05:02 22° S visible
24 Nov -2.0 18:12:15 10° S 18:14:30 17° SE 18:15:24 16° ESE visible
24 Nov -0.3 19:47:51 10° WSW 19:48:06 11° W 19:48:06 11° W visible
25 Nov -3.6 18:55:11 10° SW 18:58:21 65° NW 18:58:21 65° NW visible
26 Nov -3.5 18:02:58 10° SSW 18:06:09 52° SE 18:08:32 16° ENE visible
26 Nov -0.5 19:41:00 10° WNW 19:41:12 11° WNW 19:41:12 11° WNW visible
27 Nov -2.0 18:47:35 10° W 18:50:19 24° NW 18:51:17 21° N visible
28 Nov -3.1 17:54:43 10° WSW 17:57:53 48° NW 18:01:05 10° NE visible
29 Nov -1.1 18:41:03 10° NW 18:42:20 12° NNW 18:43:38 10° N visible
30 Nov -1.7 17:47:16 10° W 17:49:45 20° NW 17:52:15 10° NNE visible
